www.pogodaiklimat.ru

Погода и климат >> Архив погоды >> Канада >> Cambridge Bay Gsn


ПОГОДА в Cambridge Bay Gsn

  • Прогноз погоды в Cambridge Bay Gsn
  • Монитор погоды в Cambridge Bay Gsn
  • Климат города

АРХИВ ПОГОДЫ в Cambridge Bay Gsn

Время (UTC), дата Ветер
(напр.,м/с)
 
Видим.   Явления Облачность Т
(С)
Тd
(С)
f
(%)
Тe
(С)
Тes
(С)
Комфортность P
(гПа)
Po
(гПа)
Тmin
(С)
Tmax
(С)
R
(мм)
R24
(мм)
S
(см)
03 15.10 ЮВ 5 н/о н/о -9.7 -11.8 85 -17 -17 1006.7 1004.2
06 15.10 ЮВ 5 н/о {осадки} н/о -10.0 -11.7 87 -18 -18 1005.4 1002.9 -12.8 -9.4 0.2
09 15.10 В 5 н/о н/о -10.0 -11.4 89 -18 -18 1004.4 1001.9
12 15.10 СВ 3 н/о н/о -10.3 -12.0 87 -16 -16 1004.0 1001.5 -10.3 -9.4
15 15.10 С 4 н/о н/о -11.3 -12.9 88 -18 -18 1003.6 1001.1
18 15.10 СЗ 5 н/о н/о -11.2 -13.1 86 -19 -19 1003.8 1001.3 -13.6 -9.7
21 15.10 СЗ 5 н/о н/о -17.2 -19.3 84 -26 -26 1004.1 1001.6
00 16.10 С 2 н/о н/о -14.7 -16.1 89 -20 -20 1003.8 1001.3 -17.2 -10.3
03 16.10 СВ 2 н/о {осадки} н/о -13.2 -14.5 90 -18 -18 1003.1 1000.6 0.5
06 16.10 СВ 2 н/о {осадки} н/о -12.3 -13.6 90 -16 -16 1002.9 1000.4 -17.2 -9.7 0.7
09 16.10 В 1 н/о н/о -14.2 -15.3 91 -17 -17 1003.1 1000.6
12 16.10 СВ 1 н/о н/о -18.0 -19.5 88 -19 -19 1003.8 1001.3 -18.6 -9.7
15 16.10 ЮВ 2 н/о н/о -9.2 -9.7 96 -14 -14 1003.9 1001.4
18 16.10 ЮЗ 4 н/о {осадки} н/о -6.0 -8.9 80 -13 -13 1003.8 1001.4 -18.6 -5.7 0.2
21 16.10 ЮЗ 7 н/о н/о -6.8 -9.6 80 -15 -15 1003.9 1001.4
00 17.10 ЮЗ 10 н/о н/о -7.6 -10.4 80 -18 -18 1004.2 1001.7 -18.6 -5.5
03 17.10 Ю 9 н/о н/о -8.4 -9.8 90 -18 -18 1003.8 1001.4
06 17.10 Ю 6 н/о н/о -9.0 -10.0 92 -17 -17 1003.4 1001.0 -18.6 -5.5 0
09 17.10 Ю 5 н/о н/о -7.8 -8.8 93 -15 -15 1003.7 1001.3
12 17.10 Ю 5 н/о н/о -8.8 -9.9 92 -16 -16 1003.6 1001.2 -9.6 -5.5
15 17.10 Ю 6 н/о н/о -8.3 -9.7 90 -16 -16 1003.0 1000.6
18 17.10 Ю 6 н/о н/о -9.1 -10.6 89 -18 -18 1002.8 1000.4 -9.6 -7.6
21 17.10 ЮВ 7 н/о н/о -9.4 -10.8 90 -19 -19 1002.1 999.7
00 18.10 Ю 5 н/о н/о -7.5 -8.5 93 -15 -15 1001.9 999.5 -9.5 -7.5
03 18.10 Ю 6 н/о н/о -6.0 -6.7 95 -14 -14 1001.8 999.4 0.2
06 18.10 Ю 4 н/о {осадки} н/о -6.2 -6.8 96 -13 -13 1001.9 999.5 -9.5 -6.0 1 20
09 18.10 ЮВ 3 н/о н/о -6.6 -7.2 95 -12 -12 1002.2 999.8 0.8
12 18.10 ЮВ 3 н/о {осадки} н/о -6.8 -7.4 95 -12 -12 1002.6 1000.2 -7.5 -6.0 1
15 18.10 В 2 н/о н/о -7.5 -8.1 95 -12 -12 1003.0 1000.6 0.2
18 18.10 З 1 н/о {осадки} н/о -6.2 -7.0 94 -9 -9 1003.4 1001.0 -9.5 -6.2 0.4
21 18.10 СЗ 1 н/о н/о -6.4 -7.7 90 -9 -9 1004.6 1002.2 0.2
00 19.10 СВ 2 н/о н/о -10.9 -11.8 93 -16 -16 1005.8 1003.3 -14.0 -6.0 0.2
03 19.10 СВ 2 н/о н/о -11.9 -13.0 92 -17 -17 1005.9 1003.4
06 19.10 В 3 н/о н/о -9.1 -9.8 95 -15 -15 1006.3 1003.9 -14.0 -6.0
09 19.10 В 3 н/о н/о -8.2 -9.0 94 -14 -14 1006.8 1004.4
12 19.10 ЮВ 2 н/о н/о -7.4 -8.0 95 -12 -12 1007.0 1004.5 -12.7 -6.0
15 19.10 ЮВ 2 н/о н/о -9.1 -9.8 95 -13 -13 1007.3 1004.8
18 19.10 ЮВ 5 н/о н/о -6.8 -7.5 95 -14 -14 1007.0 1004.5 -14.0 -6.8
21 19.10 В 6 н/о н/о -6.9 -7.6 95 -15 -15 1006.8 1004.4
00 20.10 В 8 н/о н/о -7.0 -7.6 95 -16 -16 1006.4 1004.0 -9.4 -6.2
03 20.10 В 7 н/о н/о -6.2 -6.7 96 -15 -15 1005.9 1003.5
06 20.10 В 7 н/о н/о -5.2 -5.6 97 -14 -14 1005.5 1003.1 -9.4 -4.8 1
09 20.10 В 8 н/о н/о -4.7 -5.1 97 -14 -14 1005.0 1002.6
12 20.10 ЮВ 5 н/о н/о -4.4 -4.9 96 -11 -11 1004.7 1002.3 -7.1 -4.8
15 20.10 ЮВ 5 н/о н/о -4.8 -6.1 91 -12 -12 1004.6 1002.2
18 20.10 В 6 н/о н/о -4.8 -5.6 94 -12 -12 1004.2 1001.8 -7.1 -4.2
21 20.10 В 5 н/о {осадки} н/о -3.9 -4.6 95 -11 -11 1004.2 1001.8 0.2
00 21.10 В 4 н/о {осадки} н/о -4.2 -4.7 96 -10 -10 1004.2 1001.8 -5.2 -3.9 0.2
03 21.10 В 3 н/о н/о -4.4 -4.9 96 -10 -10 1004.6 1002.2
06 21.10 В 2 н/о н/о -4.4 -4.9 96 -9 -9 1005.6 1003.2 -5.2 -3.9
09 21.10 СВ 3 н/о н/о -4.1 -4.5 97 -10 -10 1006.3 1003.9 0.2
12 21.10 В 4 н/о {осадки} н/о -3.6 -4.1 96 -10 -10 1006.3 1003.9 -5.1 -3.9 0.2
15 21.10 СВ 4 н/о н/о -3.7 -3.9 99 -10 -10 1005.9 1003.5
18 21.10 СВ 6 н/о н/о -4.2 -4.6 97 -12 -12 1005.1 1002.7 -5.1 -3.5
21 21.10 СВ 9 н/о н/о -4.2 -4.7 96 -13 -13 1003.5 1001.1
00 22.10 СВ 10 н/о н/о -4.1 -4.5 97 -14 -14 1001.7 999.3 -4.6 -3.5 0.2

 

Местоположение метеостанции Cambridge Bay Gsn (Канада): широта 69.10 долгота -105.10 высота над уровнем моря 19 м.

В архиве по умолчанию представлена погода в Cambridge Bay Gsn за последнюю неделю. Архивные данные за месяц целиком и за предыдущие месяцы, начиная с января 2011 года, Вы можете получить, выбрав интересующий диапазон дат из раскрывающегося списка и нажав кнопку "Ввод!".

Внимание! Время в таблицах - всемирное. Для получения местного времени необходимо прибавить поправку, которая в Cambridge Bay Gsn равна -7 ч.

Смотрите также архив погоды в соседних городах и на ближайших метеорологических станциях:

Погода в Cape Peel West (Канада) (108 км)
Погода в Ellice River AWS (Канада) (158 км)
Погода в Hat Island (Канада) (223 км)
Погода в Gjoa Haven Climate (Канада) (374 км)
Погода в Kugluktuk (Канада) (432 км)
Погода в Kugluktuk Airport (Канада) (432 км)
Погода в Lupin (Канада) (452 км)
Погода в Lupin (maps) (Канада) (452 км)
Погода в Spence bay (Канада) (454 км)
Погода в Robertson Lake (Канада) (460 км)

Пояснения к столбцам:

Ветер - указаны скорость ветра в м/с - средняя за 10 мин, порывы в срок и между сроками (в фигурных скобках) и направление, откуда дует ветер: С - северный, СВ - северо-восточный, В - восточный, ЮВ - юго-восточный, Ю - южный, ЮЗ - юго-западный, З - западный, СЗ - северо-западный.
Видимость - горизонтальная дальность видимости в метрах или километрах. При видимости от 1 до 10 км при отсутствии осадков обычно наблюдается дымка, при ухудшении видимости до 1 км и менее - туман. В сухую погоду видимость может ухудшаться дымом, пылью или мглою.
Явления - указаны атмосферные явления, наблюдавшиеся в срок или в последний час перед сроком; фигурными скобками обозначены явления, наблюдавшиеся между сроками (за 1-3 часа до срока); квадратными скобками обозначены град или гололедные отложения с указанием их диаметра в мм.
Облачность - указаны через наклонную черту общая и нижняя облачность в баллах и высота нижней границы облаков в метрах; квадратными скобками обозначены формы облаков: Ci - перистые, Cs - перисто-слоистые, Cc - перисто-кучевые, Ac - высококучевые, As - высокослоистые, Sc - слоисто-кучевые, Ns - слоисто-дождевые, Cu - кучевые, Cb - кучево-дождевые. Подробнее классификацию облаков см. в Атласе облаков (PDF).
T - Температура воздуха - температура, измеренная на высоте 2 м над землей.
Td - Температура точки росы - температура, при понижении до которой содержащийся в воздухе водяной пар достигнет насыщения.
f - Относительная влажность воздуха - влажноcть воздуха, измеренная на высоте 2 м над землей.
Te - Эффективная температура - температура, которую ощущает одетый по сезону человек в тени. Характеристика душности погоды. При расчете учитывается влияние влажности воздуха и скорости ветра на теплоощущения человека.
Tes - Эффективная температура на солнце - температура, которую ощущает человек, с поправкой на солнечный нагрев. Характеристика знойности погоды. Зависит от высоты солнца над горизонтом, облачности и скорости ветра. Ночью, в пасмурную погоду, а также при ветре 12 м/с и более поправка равна нулю.
P - Атмосферное давление - приведенное к уровню моря атмосферное давление.
Po - Атмосферное давление - измеренное на уровне метеостанции атмосферное давление.
Tmin - Минимальная температура - минимум температуры воздуха на высоте 2 м над землей.
Tmax - Максимальная температура - максимум температуры воздуха на высоте 2 м над землей.
R - Количество осадков - Количество выпавших осадков за период времени, мм. При наведении курсора мыши на число - период времени, за который выпало указанное количество осадков.
R24 - Количество осадков - Количество выпавших осадков за 24 часа, мм.
S - Снежный покров - Высота снежного покрова, см. При наведении курсора мыши на число - состояние снежного покрова и степень покрытия местности в баллах.